THORAD AGENA D DEB, 5692

Orbit data source: Space-Track

THORAD AGENA D DEB, 5692 is space debris in SSO originally from a launch on Wed, 08 Apr 1970 UTC launched from the Air Force Western Test Range (AFWTR). Debris objects in space refer to the collection of defunct objects orbiting the Earth. Examples of debris include non-operational satellites, rocket bodies, and fragments generated from explosions, collisions, or faulty payload assembly.

Loading next visibility...
Identifier
5692, 1970-025LX
Orbit
SSO
Country
Flag of USUS
Related business
Manufacturer
Unknown
Mission
Spacecraft
Bus & Motor
Unknown
Mass
Unknown
Launch date (UTC)
1970-04-08 (56 years ago)
Launch vehicle
Unknown
Launch site
Air Force Western Test Range (AFWTR)
Object type
Payload
Rocket body
Debris
Shape & HBR
Unknown shape, 0.1 m
Radar Cross Section
Small (<0.1 m²)

Expand to show TLE details & history
Last TLE update: 22 hours ago

TLE from 22 hours ago
0 THORAD AGENA D DEB
1 05692U 70025LX  25355.02543293  .00000277  00000-0  44848-3 0  9991
2 05692  99.4073  25.3584 0114264  87.5508 332.4440 13.54233573540267
Epoch: 2025-12-21T00:36Z
TLE epoch observation values (Epoch: 2025-12-21T00:36:37.405Z)
Latitude
58.20038°
Longitude
-89.05744°
Altitude
991.342 km
Speed
7.399 km/s
True Right ascension
00h 39m 46s
True Declination
58° 03' 04"
Sunlit
Object was in daylight at epoch
Visualization orbit readout
Latitude
Unknown
Longitude
Unknown
Altitude
Unknown
Speed
Unknown
Apparent Right ascension
Unknown
Apparent Declination
Unknown
Sunlit
N/A
Visualization observer readout
Local Sidereal Time
21:37:01
Azimuth
Unknown
Elevation
Unknown
Doppler factor
Unknown
Orbital elements
Apogee altitude
1,138.926 km
Perigee altitude
969.081 km
Semi-major axis
7,432.14 km
Eccentricity
0.01143
Inclination
99.4073°
RAAN
25.3584°
Arg. of periapsis
87.5508°
True anomaly
331.83051°
Mean anomaly
332.444°
Eccentric anomaly
332.13804°
Mean motion
3.38745 °/min
Orbital period
106.27 mins
BSTAR
0.00044848
Loading maneuver chart data...
Computing Atmospheric mass density...
Loading historical data...
Loading historical data...
Loading historical data...
Loading historical data...
Loading historical data...
Loading historical data...
Loading historical data...

Documentation

Showing up to 5 results
|